When you browse on this site, cookies collect data to enhance your experience and personalize the content and advertising you see.
Visit our Privacy Policy to learn more. By continuing to use the site, you agree to this use of cookies and data.
  • In Latvia
  • List of Countries
  • For 7 days
  • Water Temperature
  • Satellite Maps
  • Weather Map
  • Weather Widgets
  • user-avatar
    Login

    Hourly Weather Atlantic City

    Today, 17 July, Wednesday

    Time Temperature Precipitation Wind Pressure Humidity
    00:00 +26°C° 0.7 mm 4 mps 761 mmHg 91%
    01:00 +26°C° 0 mm 2 mps 762 mmHg 91%
    02:00 +26°C° 0.3 mm 3 mps 761 mmHg 92%
    03:00 +26°C° 0.3 mm 3 mps 761 mmHg 94%
    04:00 +25°C° 0.3 mm 3 mps 760 mmHg 95%
    05:00 +26°C° 0 mm 3 mps 760 mmHg 92%
    06:00 +27°C° 0 mm 4 mps 761 mmHg 89%
    07:00 +29°C° 0 mm 4 mps 761 mmHg 86%
    08:00 +30°C° 0.3 mm 4 mps 761 mmHg 77%
    09:00 +33°C° 0.3 mm 4 mps 761 mmHg 68%
    10:00 +35°C° 0.3 mm 4 mps 760 mmHg 59%
    11:00 +36°C° 0 mm 5 mps 760 mmHg 54%
    12:00 +37°C° 0 mm 5 mps 760 mmHg 50%
    13:00 +39°C° 0 mm 6 mps 760 mmHg 46%
    14:00 +38°C° 0 mm 6 mps 759 mmHg 48%
    15:00 +36°C° 0 mm 6 mps 759 mmHg 51%
    16:00 +35°C° 0 mm 6 mps 758 mmHg 54%
    17:00 +34°C° 0 mm 6 mps 758 mmHg 63%
    18:00 +32°C° 0 mm 6 mps 758 mmHg 72%
    19:00 +29°C° 0 mm 6 mps 758 mmHg 81%
    20:00 +29°C° 0.5 mm 6 mps 758 mmHg 83%
    21:00 +28°C° 0.5 mm 6 mps 758 mmHg 85%
    22:00 +28°C° 0.5 mm 7 mps 759 mmHg 88%
    23:00 +27°C° 0.9 mm 5 mps 758 mmHg 90%

    Tomorrow, 18 July, Thursday

    Time Temperature Precipitation Wind Pressure Humidity
    00:00 +26°C° 0.9 mm 3 mps 758 mmHg 92%
    01:00 +26°C° 0.9 mm 1 mps 758 mmHg 94%
    02:00 +26°C° 0.1 mm 2 mps 758 mmHg 94%
    03:00 +26°C° 0.1 mm 2 mps 758 mmHg 93%
    04:00 +26°C° 0.1 mm 3 mps 758 mmHg 93%
    05:00 +26°C° 0.1 mm 3 mps 758 mmHg 92%
    06:00 +27°C° 0.1 mm 3 mps 758 mmHg 91%
    07:00 +27°C° 0.1 mm 4 mps 758 mmHg 89%
    08:00 +29°C° 0.3 mm 4 mps 758 mmHg 80%
    09:00 +32°C° 0.3 mm 4 mps 758 mmHg 71%
    10:00 +34°C° 0.3 mm 4 mps 758 mmHg 63%
    11:00 +34°C° 0.6 mm 4 mps 758 mmHg 65%
    12:00 +34°C° 0.6 mm 4 mps 758 mmHg 68%
    13:00 +33°C° 0.6 mm 4 mps 757 mmHg 71%
    14:00 +33°C° 1.1 mm 4 mps 757 mmHg 74%
    15:00 +33°C° 1.1 mm 5 mps 757 mmHg 78%
    16:00 +32°C° 1.1 mm 5 mps 757 mmHg 82%
    17:00 +30°C° 0.8 mm 4 mps 757 mmHg 85%
    18:00 +29°C° 0.8 mm 4 mps 757 mmHg 87%
    19:00 +28°C° 0.8 mm 4 mps 757 mmHg 90%
    20:00 +28°C° 0 mm 4 mps 757 mmHg 92%
    21:00 +27°C° 0 mm 3 mps 757 mmHg 93%
    22:00 +26°C° 0 mm 3 mps 758 mmHg 94%
    23:00 +26°C° 0 mm 3 mps 758 mmHg 94%

    Day after tomorrow, 19 July, Friday

    Time Temperature Precipitation Wind Pressure Humidity
    00:00 +26°C° 0 mm 3 mps 758 mmHg 94%
    01:00 +26°C° 0 mm 3 mps 758 mmHg 94%
    02:00 +25°C° 0 mm 3 mps 758 mmHg 95%
    03:00 +25°C° 0 mm 3 mps 758 mmHg 96%
    04:00 +25°C° 0 mm 3 mps 758 mmHg 97%
    05:00 +25°C° 0 mm 3 mps 759 mmHg 96%
    06:00 +26°C° 0 mm 3 mps 759 mmHg 94%
    07:00 +27°C° 0 mm 3 mps 759 mmHg 92%
    08:00 +29°C° 0 mm 2 mps 759 mmHg 83%
    09:00 +31°C° 0 mm 2 mps 760 mmHg 74%
    10:00 +33°C° 0 mm 1 mps 760 mmHg 65%
    11:00 +35°C° 0 mm 2 mps 760 mmHg 62%
    12:00 +35°C° 0 mm 3 mps 760 mmHg 58%
    13:00 +35°C° 0 mm 3 mps 759 mmHg 55%
    14:00 +35°C° 0 mm 4 mps 759 mmHg 55%
    15:00 +35°C° 0 mm 4 mps 759 mmHg 55%
    16:00 +35°C° 0 mm 5 mps 758 mmHg 55%
    17:00 +34°C° 0 mm 5 mps 759 mmHg 62%
    18:00 +32°C° 0 mm 5 mps 759 mmHg 70%
    19:00 +30°C° 0 mm 5 mps 759 mmHg 77%
    20:00 +29°C° 0 mm 5 mps 759 mmHg 79%
    21:00 +28°C° 0 mm 5 mps 759 mmHg 82%
    22:00 +27°C° 0 mm 5 mps 759 mmHg 84%
    23:00 +27°C° 0 mm 4 mps 759 mmHg 85%

    20 July, Saturday

    Time Temperature Precipitation Wind Pressure Humidity
    00:00 +27°C° 0 mm 4 mps 759 mmHg 86%
    01:00 +27°C° 0 mm 4 mps 758 mmHg 87%
    02:00 +27°C° 0.1 mm 4 mps 758 mmHg 88%
    03:00 +27°C° 0.1 mm 4 mps 758 mmHg 88%
    04:00 +26°C° 0.1 mm 4 mps 758 mmHg 89%
    05:00 +28°C° 0 mm 3 mps 759 mmHg 83%
    06:00 +29°C° 0 mm 3 mps 759 mmHg 78%
    07:00 +30°C° 0 mm 3 mps 759 mmHg 73%
    08:00 +33°C° 0 mm 3 mps 759 mmHg 66%
    09:00 +36°C° 0 mm 3 mps 759 mmHg 58%
    10:00 +38°C° 0 mm 2 mps 760 mmHg 50%
    11:00 +39°C° 0 mm 3 mps 759 mmHg 47%
    12:00 +40°C° 0 mm 4 mps 759 mmHg 43%
    13:00 +41°C° 0 mm 4 mps 758 mmHg 40%
    14:00 +41°C° 0 mm 5 mps 758 mmHg 41%
    15:00 +41°C° 0 mm 6 mps 758 mmHg 43%
    16:00 +40°C° 0 mm 6 mps 758 mmHg 44%
    17:00 +38°C° 0 mm 6 mps 757 mmHg 53%
    18:00 +35°C° 0 mm 6 mps 757 mmHg 62%
    19:00 +33°C° 0 mm 6 mps 757 mmHg 72%
    20:00 +32°C° 0 mm 5 mps 757 mmHg 72%
    21:00 +32°C° 0 mm 5 mps 758 mmHg 73%
    22:00 +30°C° 0 mm 5 mps 758 mmHg 74%
    23:00 +29°C° 0 mm 4 mps 758 mmHg 75%

    21 July, Sunday

    Time Temperature Precipitation Wind Pressure Humidity
    00:00 +29°C° 0 mm 4 mps 757 mmHg 76%
    01:00 +28°C° 0 mm 4 mps 757 mmHg 76%
    02:00 +28°C° 0.1 mm 4 mps 757 mmHg 81%
    03:00 +27°C° 0.1 mm 3 mps 757 mmHg 86%
    04:00 +27°C° 0.1 mm 3 mps 757 mmHg 90%
    05:00 +28°C° 0 mm 3 mps 757 mmHg 88%
    06:00 +29°C° 0 mm 4 mps 757 mmHg 85%
    07:00 +30°C° 0 mm 4 mps 758 mmHg 82%
    08:00 +33°C° 0 mm 4 mps 758 mmHg 72%
    09:00 +35°C° 0 mm 4 mps 758 mmHg 62%
    10:00 +38°C° 0 mm 4 mps 758 mmHg 51%
    11:00 +40°C° 0 mm 4 mps 757 mmHg 47%
    12:00 +41°C° 0 mm 5 mps 757 mmHg 44%
    13:00 +42°C° 0 mm 6 mps 756 mmHg 40%
    14:00 +41°C° 0 mm 6 mps 756 mmHg 41%
    15:00 +41°C° 0 mm 6 mps 756 mmHg 42%
    16:00 +40°C° 0 mm 6 mps 756 mmHg 43%
    17:00 +38°C° 0 mm 6 mps 756 mmHg 53%
    18:00 +35°C° 0 mm 6 mps 756 mmHg 62%
    19:00 +33°C° 0 mm 6 mps 756 mmHg 72%
    20:00 +32°C° 0.4 mm 5 mps 756 mmHg 77%
    21:00 +29°C° 0.4 mm 5 mps 756 mmHg 83%
    22:00 +28°C° 0.4 mm 5 mps 756 mmHg 89%
    23:00 +28°C° 0.5 mm 4 mps 756 mmHg 89%

    22 July, Monday

    Time Temperature Precipitation Wind Pressure Humidity
    00:00 +28°C° 0.5 mm 4 mps 755 mmHg 90%
    01:00 +28°C° 0.5 mm 3 mps 755 mmHg 90%
    02:00 +28°C° 0.1 mm 3 mps 755 mmHg 90%
    03:00 +27°C° 0.1 mm 2 mps 755 mmHg 90%
    04:00 +27°C° 0.1 mm 2 mps 755 mmHg 90%
    05:00 +28°C° 0 mm 2 mps 755 mmHg 88%
    06:00 +28°C° 0 mm 3 mps 755 mmHg 86%
    07:00 +29°C° 0 mm 3 mps 755 mmHg 84%
    08:00 +31°C° 0.2 mm 3 mps 755 mmHg 76%
    09:00 +33°C° 0.2 mm 4 mps 755 mmHg 68%
    10:00 +35°C° 0.2 mm 4 mps 756 mmHg 60%
    11:00 +35°C° 1 mm 4 mps 756 mmHg 56%
    12:00 +36°C° 1 mm 4 mps 756 mmHg 51%
    13:00 +37°C° 1 mm 4 mps 756 mmHg 47%
    14:00 +35°C° 0.2 mm 3 mps 756 mmHg 52%
    15:00 +34°C° 0.2 mm 3 mps 756 mmHg 58%
    16:00 +31°C° 0.2 mm 3 mps 755 mmHg 63%
    17:00 +30°C° 0.1 mm 3 mps 756 mmHg 71%
    18:00 +28°C° 0.1 mm 3 mps 756 mmHg 78%
    19:00 +27°C° 0.1 mm 2 mps 756 mmHg 85%
    20:00 +26°C° 0.1 mm 3 mps 756 mmHg 86%
    21:00 +26°C° 0.1 mm 3 mps 756 mmHg 87%
    22:00 +25°C° 0.1 mm 3 mps 756 mmHg 89%
    23:00 +25°C° 0 mm 3 mps 756 mmHg 89%
    Show more